Weather History for Mammoth, CA

Change the Weather History Date:

Friday, December 6, 2013

  Actual Average Record
Temperature  
Mean Temperature 12 °F -  
Max Temperature 30 °F 40 °F 68 °F (2006)
Min Temperature -7 °F 24 °F -7 °F (2013)
Degree Days  
Heating Degree Days 54    
Moisture  
Dew Point 3 °F    
Average Humidity 63    
Maximum Humidity 85    
Minimum Humidity 27    
Precipitation  
Precipitation 0.00 in - - ()
Sea Level Pressure  
Sea Level Pressure 29.88 in    
Wind  
Wind Speed 4 mph (ESE)    
Max Wind Speed 18 mph    
Max Gust Speed 31 mph    
Visibility 10 miles    
Events      
Averages and records for this station are not official NWS values.
T = Trace of Precipitation, MM = Missing Value Source: NWS Daily Summary

Daily Weather History Graph

Daily Weather History Graph

Search for Another Location

Airport:

Trip Planner

Search our weather history database for the weather conditions in past years. The results will help you decide how hot, cold, wet, or windy it might be!

Date:

Astronomy

Dec. 06, 2013 Rise Set
Actual Time 6:56 AM PST 4:36 PM PST
Civil Twilight 6:27 AM PST 5:05 PM PST
Nautical Twilight 5:54 AM PST 5:38 PM PST
Astronomical Twilight 5:22 AM PST 6:10 PM PST
Moon 10:08 AM PST (12/6) 9:10 PM PST (12/6)
Length of Visible Light 10h 38m
Length of Day
9h 40m
Waxing Crescent, 20% of the Moon is Illuminated
Dec 6
Waxing Crescent
Dec 9
First Quarter
Dec 17
Full
Dec 25
Last Quarter
Jan 1
New

Hourly Weather History & Observations

Time (PST) Temp. Windchill Dew Point Humidity Pressure Visibility Wind Dir Wind Speed Gust Speed Precip Events Conditions
3:35 AM -5.8 °F - -11.2 °F 77% 29.93 in 10.0 mi Calm Calm - N/A   Clear
3:55 AM -4.0 °F -12.4 °F -7.6 °F 85% 29.93 in 10.0 mi NNW 3.5 mph - N/A   Clear
4:15 AM -5.8 °F -16.7 °F -9.4 °F 84% 29.93 in 10.0 mi North 4.6 mph - N/A   Clear
4:35 AM -5.8 °F -16.7 °F -9.4 °F 84% 29.93 in 10.0 mi NNW 4.6 mph - N/A   Clear
4:55 AM -5.8 °F - -9.4 °F 84% 29.92 in 10.0 mi Calm Calm - N/A   Clear
5:15 AM -4.0 °F - -7.6 °F 85% 29.92 in 10.0 mi Calm Calm - N/A   Clear
5:35 AM -4.0 °F -12.4 °F -9.4 °F 78% 29.92 in 10.0 mi NW 3.5 mph - N/A   Clear
5:55 AM -5.8 °F -16.7 °F -11.2 °F 77% 29.91 in 10.0 mi North 4.6 mph - N/A   Clear
6:15 AM -5.8 °F - -11.2 °F 77% 29.91 in 10.0 mi Calm Calm - N/A   Clear
6:35 AM -7.6 °F - -11.2 °F 84% 29.92 in 10.0 mi Calm Calm - N/A   Clear
6:55 AM -5.8 °F -14.5 °F -9.4 °F 84% 29.92 in 10.0 mi NNE 3.5 mph - N/A   Clear
7:15 AM -4.0 °F -14.6 °F -7.6 °F 85% 29.92 in 10.0 mi North 4.6 mph - N/A   Clear
7:35 AM -4.0 °F -12.4 °F -7.6 °F 85% 29.92 in 10.0 mi ESE 3.5 mph - N/A   Clear
7:55 AM 3.2 °F - -2.2 °F 78% 29.92 in 10.0 mi Calm Calm - N/A   Clear
8:15 AM 5.0 °F - 1.4 °F 85% 29.93 in 10.0 mi Calm Calm - N/A   Clear
8:35 AM 5.0 °F - 1.4 °F 85% 29.94 in 10.0 mi Calm Calm - N/A   Clear
8:55 AM 5.0 °F - 1.4 °F 85% 29.93 in 10.0 mi Calm Calm - N/A   Clear
9:15 AM 6.8 °F - 3.2 °F 85% 29.94 in 10.0 mi Calm Calm - N/A   Clear
9:35 AM 8.6 °F - 3.2 °F 79% 29.94 in 10.0 mi Calm Calm - N/A   Clear
9:55 AM 10.4 °F - 5.0 °F 79% 29.94 in 10.0 mi North - - N/A   Clear
10:15 AM 15.8 °F - 6.8 °F 68% 29.94 in 10.0 mi Calm Calm - N/A   Clear
10:55 AM 23.0 °F 12.4 °F 10.4 °F 59% 29.92 in 10.0 mi ESE 10.4 mph - N/A   Clear
11:35 AM 28.4 °F 18.5 °F 10.4 °F 47% 29.91 in 10.0 mi ESE 11.5 mph 16.1 mph N/A   Clear
12:15 PM 28.4 °F 18.5 °F 8.6 °F 43% 29.89 in 10.0 mi ESE 11.5 mph - N/A   Clear
12:55 PM 26.6 °F 16.2 °F 8.6 °F 47% 29.87 in 10.0 mi ESE 11.5 mph - N/A   Clear
1:15 PM 28.4 °F 17.0 °F 10.4 °F 47% 29.86 in 10.0 mi East 15.0 mph - N/A   Clear
1:35 PM 28.4 °F 18.5 °F 8.6 °F 43% 29.86 in 10.0 mi SE 11.5 mph 19.6 mph N/A   Scattered Clouds
1:55 PM 28.4 °F 18.0 °F 10.4 °F 47% 29.85 in 10.0 mi ESE 12.7 mph - N/A   Scattered Clouds
2:15 PM 30.2 °F 21.3 °F 8.6 °F 40% 29.85 in 10.0 mi ESE 10.4 mph - N/A   Scattered Clouds
2:35 PM 30.2 °F 22.6 °F 8.6 °F 40% 29.86 in 10.0 mi ESE 8.1 mph - N/A   Mostly Cloudy
2:55 PM 28.4 °F 19.7 °F 8.6 °F 43% 29.86 in 10.0 mi ESE 9.2 mph - N/A   Overcast
3:55 PM 30.2 °F 25.4 °F -0.4 °F 27% 29.85 in 10.0 mi WSW 4.6 mph 23.0 mph N/A   Scattered Clouds
4:35 PM 24.8 °F 15.3 °F 5.0 °F 43% 29.85 in 10.0 mi ESE 9.2 mph 23.0 mph N/A   Clear
4:55 PM 21.2 °F 13.6 °F 8.6 °F 58% 29.86 in 10.0 mi ENE 5.8 mph - N/A   Clear
5:15 PM 19.4 °F 10.4 °F 6.8 °F 58% 29.86 in 10.0 mi SE 6.9 mph - N/A   Scattered Clouds
5:35 PM 19.4 °F 9.5 °F 6.8 °F 58% 29.85 in 10.0 mi SE 8.1 mph - N/A   Clear
5:55 PM 19.4 °F 9.5 °F 6.8 °F 58% 29.85 in 10.0 mi ESE 8.1 mph - N/A   Scattered Clouds
6:15 PM 19.4 °F 10.4 °F 5.0 °F 54% 29.86 in 10.0 mi ESE 6.9 mph - N/A   Scattered Clouds
6:35 PM 19.4 °F 9.5 °F 5.0 °F 54% 29.85 in 10.0 mi ENE 8.1 mph - N/A   Scattered Clouds
6:55 PM 19.4 °F 11.5 °F 5.0 °F 54% 29.85 in 10.0 mi ESE 5.8 mph - N/A   Scattered Clouds
7:15 PM 19.4 °F - 5.0 °F 54% 29.85 in 10.0 mi Calm Calm - N/A   Scattered Clouds
7:35 PM 19.4 °F 14.3 °F 5.0 °F 54% 29.84 in 10.0 mi ESE 3.5 mph - N/A   Scattered Clouds
7:55 PM 19.4 °F 14.3 °F 8.6 °F 63% 29.84 in 10.0 mi NW 3.5 mph - N/A   Scattered Clouds
8:15 PM 21.2 °F 10.9 °F 6.8 °F 54% 29.84 in 10.0 mi SE 9.2 mph - N/A   Mostly Cloudy
8:35 PM 21.2 °F 9.5 °F 6.8 °F 54% 29.83 in 10.0 mi ESE 11.5 mph 24.2 mph N/A   Overcast
8:55 PM 24.8 °F 11.1 °F 6.8 °F 46% 29.82 in 10.0 mi SSW 18.4 mph 28.8 mph N/A   Overcast
9:15 PM 23.0 °F 11.7 °F 5.0 °F 46% 29.83 in 10.0 mi SE 11.5 mph 31.1 mph N/A   Overcast
9:35 PM 21.2 °F 9.5 °F 6.8 °F 54% 29.81 in 10.0 mi East 11.5 mph - N/A   Overcast
9:55 PM 21.2 °F 12.6 °F 6.8 °F 54% 29.83 in 10.0 mi ESE 6.9 mph - N/A   Overcast
10:15 PM 21.2 °F 12.6 °F 8.6 °F 58% 29.83 in 10.0 mi East 6.9 mph 18.4 mph N/A   Overcast
10:35 PM 23.0 °F 13.1 °F 8.6 °F 54% 29.81 in 10.0 mi South 9.2 mph 21.9 mph N/A   Overcast
10:55 PM 21.2 °F 14.9 °F 8.6 °F 58% 29.79 in 10.0 mi ENE 4.6 mph 24.2 mph N/A   Overcast
11:15 PM 19.4 °F 12.8 °F 10.4 °F 68% 29.80 in 10.0 mi East 4.6 mph - N/A   Mostly Cloudy
11:35 PM 17.6 °F - 8.6 °F 68% 29.79 in 10.0 mi Calm Calm - N/A   Overcast
11:55 PM 19.4 °F 14.3 °F 10.4 °F 68% 29.78 in 10.0 mi SE 3.5 mph - N/A   Overcast